period_start,C,m1,H,J0,J1,J2,J3,J4,J5,JA,JB,JC,JD,JJ,JK,JN,#
2015-02-04 00:03:22,0.20,6.19,0.00,19.38,25.10,27.75,4.85,28.81,1020.52,2035.99,1716.50,1997.85,2149.17,350.35,353.65,26.25,0000 0000 0000 0000 000000
2015-02-04 00:08:23,0.20,6.19,0.00,19.44,25.10,27.87,4.93,28.82,1020.51,2035.99,1715.51,1996.98,2148.26,350.42,353.43,26.28,0000 0000 0000 0000 000000
2015-02-04 00:13:24,0.22,6.20,0.00,19.47,25.10,27.92,4.91,28.79,1020.52,2035.99,1714.30,1996.10,2147.41,350.53,353.46,26.31,0000 0000 0000 0000 000000
2015-02-04 00:18:25,0.22,6.20,0.00,19.46,25.10,27.92,4.91,28.77,1020.52,2035.99,1713.18,1995.28,2146.54,349.90,353.16,26.34,0000 0000 0000 0000 000000
2015-02-04 00:23:27,0.19,6.21,0.00,19.45,25.09,27.98,4.82,28.81,1020.52,2035.99,1712.15,1994.52,2145.69,349.29,352.55,26.37,0000 0000 0000 0000 000000
2015-02-04 00:28:28,0.19,6.22,0.00,19.36,25.07,27.91,4.85,28.76,1020.54,2035.99,1711.05,1993.70,2144.79,349.76,353.26,26.40,0000 0000 0000 0000 000000
2015-02-04 00:33:29,0.16,6.22,0.00,19.24,25.07,27.72,4.92,28.93,1020.53,2035.99,1710.08,1992.96,2143.93,349.80,353.38,26.43,0000 0000 0000 0000 000000
2015-02-04 00:38:31,0.20,6.23,0.00,19.41,25.07,27.93,4.84,28.99,1020.53,2035.99,1709.51,1992.12,2142.98,350.07,353.21,26.46,0000 0000 0000 0000 000000
2015-02-04 00:43:32,0.23,6.23,0.00,19.47,25.07,27.94,4.86,28.84,1020.54,2035.99,1708.35,1991.30,2142.03,349.69,352.88,26.49,0000 0000 0000 0000 000000
2015-02-04 00:48:34,0.21,6.24,0.00,19.46,25.06,27.93,4.92,28.76,1020.64,2035.99,1707.30,1990.54,2141.13,350.01,353.24,26.52,0000 0000 0000 0000 000000
2015-02-04 00:53:35,0.19,6.25,0.00,19.46,25.05,27.97,4.89,28.79,1020.69,2035.99,1706.30,1989.74,2140.30,349.72,353.12,26.55,0000 0000 0000 0000 000000
2015-02-04 00:58:36,0.17,6.25,0.00,19.45,25.05,27.91,4.89,28.77,1020.56,2035.99,1705.27,1988.99,2139.48,350.27,353.54,26.58,0000 0000 0000 0000 000000
2015-02-04 01:03:37,0.21,6.26,0.00,19.26,25.05,27.77,4.91,28.90,1020.58,2035.99,1704.35,1988.14,2138.63,350.06,353.65,26.61,0000 0000 0000 0000 000000
2015-02-04 01:08:38,0.22,6.26,0.00,19.37,25.05,27.86,4.96,28.93,1020.56,2035.99,1703.12,1987.28,2137.71,349.67,353.34,26.64,0000 0000 0000 0000 000000
2015-02-04 01:13:39,0.19,6.27,0.00,19.43,25.04,27.93,4.92,28.77,1020.54,2035.99,1702.10,1986.51,2136.91,350.13,353.73,26.67,0000 0000 0000 0000 000000
2015-02-04 01:18:40,0.19,6.28,0.00,19.47,25.03,27.99,4.87,28.80,1020.59,2036.00,1701.16,1985.73,2135.99,349.96,353.28,26.69,0000 0000 0000 0000 000000
2015-02-04 01:23:42,0.19,6.28,0.00,19.45,25.02,28.06,4.81,28.74,1020.76,2036.00,1699.97,1984.93,2135.08,349.71,352.99,26.72,0000 0000 0000 0000 000000
2015-02-04 01:28:43,0.22,6.29,0.00,19.36,25.02,27.89,4.98,28.83,1020.88,2036.01,1698.94,1984.07,2134.20,349.83,353.42,26.75,0000 0000 0000 0000 000000
2015-02-04 01:33:44,0.24,6.29,0.00,19.37,25.02,27.85,4.91,28.88,1020.89,2036.01,1697.85,1983.31,2133.35,350.11,353.49,26.78,0000 0000 0000 0000 000000
2015-02-04 01:38:45,0.23,6.30,0.00,19.40,25.02,27.89,4.99,28.99,1020.69,2036.00,1696.72,1982.58,2132.47,350.17,353.54,26.81,0000 0000 0000 0000 000000
2015-02-04 01:43:46,0.19,6.31,0.00,19.40,25.00,27.88,4.88,28.93,1020.81,2036.02,1695.65,1981.79,2131.62,349.58,352.99,26.84,0000 0000 0000 0000 000000
2015-02-04 01:48:48,0.19,6.31,0.00,19.34,25.00,27.89,4.89,28.91,1020.90,2036.02,1694.67,1980.95,2130.69,349.75,353.17,26.87,0000 0000 0000 0000 000000
2015-02-04 01:53:49,0.20,6.32,0.00,19.19,25.00,27.76,4.92,28.86,1020.97,2036.03,1693.65,1980.09,2129.79,350.28,354.00,26.90,0000 0000 0000 0000 000000
2015-02-04 01:58:51,0.22,6.33,0.00,19.24,25.00,27.70,4.92,28.98,1020.98,2036.03,1692.61,1979.26,2128.91,350.03,353.71,26.93,0000 0000 0000 0000 000000
2015-02-04 02:03:52,0.22,6.33,0.00,19.28,24.99,27.81,4.85,28.73,1021.00,2036.05,1691.56,1978.47,2128.01,349.98,353.59,26.96,0000 0000 0000 0000 000000
2015-02-04 02:08:53,0.21,6.34,0.00,19.25,24.98,27.72,4.94,28.83,1021.01,2036.05,1690.51,1977.64,2127.09,350.41,354.08,26.99,0000 0000 0000 0000 000000
2015-02-04 02:13:54,0.18,6.34,0.00,19.28,24.97,27.80,4.93,28.86,1020.99,2036.05,1689.38,1976.83,2126.16,349.92,353.67,27.02,0000 0000 0000 0000 000000
2015-02-04 02:18:55,0.21,6.35,0.00,19.12,24.97,27.60,4.93,28.90,1021.01,2036.03,1688.29,1975.96,2125.27,349.63,353.55,27.05,0000 0000 0000 0000 000000
2015-02-04 02:23:57,0.23,6.36,0.00,19.11,24.97,27.61,4.93,28.89,1020.87,2036.03,1687.18,1975.07,2124.32,349.67,353.41,27.07,0000 0000 0000 0000 000000
2015-02-04 02:28:58,0.23,6.36,0.00,19.26,24.97,27.75,4.89,28.93,1020.74,2036.05,1686.16,1974.18,2123.48,350.03,353.45,27.10,0000 0000 0000 0000 000000
2015-02-04 02:33:59,0.22,6.37,0.00,19.26,24.95,27.77,4.92,29.08,1020.79,2036.07,1685.12,1973.41,2122.57,349.93,353.31,27.13,0000 0000 0000 0000 000000
2015-02-04 02:39:01,0.22,6.38,0.00,19.22,24.95,27.81,4.89,29.04,1020.57,2036.10,1683.99,1972.62,2121.70,349.28,352.88,27.16,0000 0000 0000 0000 000000
2015-02-04 02:44:02,0.17,6.38,0.00,19.09,24.93,27.65,4.94,28.89,1020.61,2036.13,1683.02,1971.83,2120.82,350.04,353.67,27.19,0000 0000 0000 0000 000000
2015-02-04 02:49:03,0.22,6.39,0.00,19.12,24.92,27.70,4.95,28.86,1020.56,2036.24,1682.09,1971.02,2119.97,350.09,353.80,27.22,0000 0000 0000 0000 000000
2015-02-04 02:54:04,0.32,6.40,0.00,19.19,24.92,27.79,4.90,28.65,1020.57,2036.61,1681.05,1970.18,2119.09,350.10,353.66,27.25,0000 0000 0000 0000 000000
2015-02-04 02:59:05,0.22,6.40,0.00,19.22,24.91,27.79,4.81,28.78,1020.54,2036.69,1680.01,1969.38,2118.23,349.71,353.40,27.28,0000 0000 0000 0000 000000
2015-02-04 03:04:07,0.24,6.41,0.00,19.16,24.90,27.78,4.96,28.83,1020.55,2036.82,1679.01,1968.67,2117.37,350.40,354.04,27.31,0000 0000 0000 0000 000000
2015-02-04 03:09:08,0.18,6.42,0.00,19.09,24.90,27.62,4.83,28.80,1020.67,2036.83,1677.92,1967.90,2116.56,349.64,353.57,27.34,0000 0000 0000 0000 000000
2015-02-04 03:14:09,0.23,6.42,0.00,19.13,24.89,27.65,5.04,28.96,1020.75,2036.85,1676.80,1967.02,2115.70,350.56,354.07,27.37,0000 0000 0000 0000 000000
2015-02-04 03:19:11,0.23,6.43,0.00,19.12,24.87,27.70,4.86,28.88,1020.56,2036.93,1675.78,1966.12,2114.81,349.66,353.30,27.40,0000 0000 0000 0000 000000
2015-02-04 03:24:12,0.22,6.44,0.00,19.14,24.87,27.68,4.81,29.07,1020.53,2036.94,1674.75,1965.38,2113.92,349.81,353.22,27.43,0000 0000 0000 0000 000000
2015-02-04 03:29:14,0.22,6.44,0.00,18.98,24.86,27.47,4.88,28.88,1020.55,2036.93,1673.71,1964.51,2113.03,349.86,353.42,27.46,0000 0000 0000 0000 000000
2015-02-04 03:34:15,0.20,6.45,0.00,19.12,24.85,27.55,4.94,28.73,1020.57,2036.97,1672.63,1963.81,2112.14,350.01,353.78,27.49,0000 0000 0000 0000 000000
2015-02-04 03:39:16,0.21,6.46,0.00,19.15,24.85,27.62,4.99,28.97,1020.61,2036.98,1671.55,1962.96,2111.30,350.58,354.13,27.51,0000 0000 0000 0000 000000
2015-02-04 03:44:17,0.20,6.46,0.00,19.11,24.83,27.64,4.91,28.96,1020.59,2036.98,1670.49,1962.08,2110.74,349.96,353.47,27.54,0000 0000 0000 0000 000000
2015-02-04 03:49:19,0.21,6.47,0.00,18.99,24.82,27.51,4.90,28.98,1020.55,2036.99,1669.46,1961.38,2109.92,349.68,353.73,27.57,0000 0000 0000 0000 000000
2015-02-04 03:54:20,0.20,6.47,0.00,18.97,24.82,27.50,4.96,29.01,1020.56,2036.99,1668.51,1960.63,2109.07,349.95,353.78,27.60,0000 0000 0000 0000 000000
2015-02-04 03:59:21,0.19,6.48,0.00,19.06,24.82,27.64,4.84,28.98,1020.56,2036.99,1667.50,1959.84,2108.16,349.67,353.35,27.63,0000 0000 0000 0000 000000
2015-02-04 04:04:23,0.21,6.49,0.00,19.09,24.80,27.59,4.88,28.94,1020.69,2036.99,1666.42,1959.02,2107.32,350.07,353.61,27.66,0000 0000 0000 0000 000000
2015-02-04 04:09:24,0.22,6.49,0.00,19.11,24.80,27.58,4.89,28.98,1020.62,2036.99,1665.47,1958.19,2106.47,350.41,354.23,27.69,0000 0000 0000 0000 000000
2015-02-04 04:14:25,0.19,6.50,0.00,19.00,24.80,27.45,4.98,29.02,1020.88,2037.00,1664.58,1957.47,2105.70,350.12,353.73,27.72,0000 0000 0000 0000 000000
2015-02-04 04:19:27,0.21,6.50,0.00,19.09,24.80,27.53,4.84,29.00,1020.86,2037.00,1663.57,1956.67,2104.76,349.78,353.69,27.75,0000 0000 0000 0000 000000
2015-02-04 04:24:28,0.18,6.51,0.00,19.09,24.79,27.61,4.96,29.07,1020.89,2037.01,1662.55,1955.85,2103.88,349.98,354.00,27.78,0000 0000 0000 0000 000000
2015-02-04 04:29:30,0.24,6.52,0.00,19.16,24.77,27.76,4.89,29.10,1020.98,2037.01,1661.42,1954.88,2102.85,350.12,353.88,27.81,0000 0000 0000 0000 000000
2015-02-04 04:34:31,0.26,6.53,0.00,19.13,24.77,27.76,4.94,29.01,1021.01,2037.01,1660.17,1953.87,2101.73,350.03,353.71,27.84,0000 0000 0000 0000 000000
2015-02-04 04:39:33,0.29,6.53,0.00,19.18,24.77,27.77,4.92,29.15,1021.01,2037.02,1658.80,1952.85,2100.65,349.98,353.62,27.87,0000 0000 0000 0000 000000
2015-02-04 04:44:33,0.23,6.54,0.00,19.31,24.77,27.89,4.85,29.09,1021.01,2037.01,1657.53,1951.96,2099.67,349.86,353.26,27.90,0000 0000 0000 0000 000000
2015-02-04 04:49:35,0.25,6.55,0.00,19.39,24.77,27.95,4.91,29.19,1021.01,2037.01,1656.39,1950.97,2098.66,349.91,353.47,27.92,0000 0000 0000 0000 000000
2015-02-04 04:54:36,0.27,6.56,0.00,19.42,24.78,27.89,4.87,29.10,1021.01,2037.01,1655.10,1949.89,2097.53,349.93,353.52,27.95,0000 0000 0000 0000 000000
2015-02-04 04:59:37,0.35,6.57,0.00,19.40,24.79,27.86,4.89,29.09,1021.06,2037.01,1653.60,1948.62,2096.10,350.15,353.68,27.98,0000 0000 0000 0000 000000
2015-02-04 05:04:39,0.28,6.58,0.00,19.44,24.80,27.99,4.91,29.13,1021.21,2037.00,1652.21,1947.51,2094.82,350.43,353.84,28.01,0000 0000 0000 0000 000000
2015-02-04 05:09:40,0.32,6.58,0.00,19.52,24.80,28.03,4.89,29.10,1021.35,2037.01,1650.72,1946.37,2093.60,349.87,353.34,28.04,0000 0000 0000 0000 000000
2015-02-04 05:14:42,0.28,6.59,0.00,19.54,24.81,28.07,4.87,28.86,1021.30,2037.00,1649.12,1945.09,2092.27,349.68,353.04,28.07,0000 0000 0000 0000 000000
2015-02-04 05:19:43,0.36,6.60,0.00,19.50,24.82,28.07,4.93,29.04,1021.42,2037.00,1647.57,1943.84,2090.89,350.23,353.83,28.10,0000 0000 0000 0000 000000
2015-02-04 05:24:44,0.30,6.61,0.00,19.50,24.82,28.04,4.88,28.99,1021.48,2037.00,1645.98,1942.72,2089.71,349.35,352.92,28.13,0000 0000 0000 0000 000000
2015-02-04 05:29:46,0.33,6.62,0.00,19.56,24.84,28.06,4.91,28.98,1021.50,2037.00,1644.49,1941.58,2088.50,350.00,353.46,28.16,0000 0000 0000 0000 000000
2015-02-04 05:34:47,0.29,6.63,0.00,19.59,24.85,28.14,4.91,28.85,1021.50,2037.00,1642.91,1940.50,2087.39,349.75,353.03,28.19,0000 0000 0000 0000 000000
2015-02-04 05:39:48,0.28,6.64,0.00,19.60,24.85,28.17,4.92,28.98,1021.50,2036.99,1641.50,1939.43,2086.29,349.88,353.33,28.22,0000 0000 0000 0000 000000
2015-02-04 05:44:49,0.25,6.65,0.00,19.55,24.87,28.10,4.80,28.89,1021.50,2036.99,1640.16,1938.44,2085.06,349.82,353.33,28.25,0000 0000 0000 0000 000000
2015-02-04 05:49:50,0.31,6.66,0.00,19.51,24.87,28.04,4.90,28.94,1021.50,2036.99,1638.73,1937.35,2083.87,349.73,353.18,28.28,0000 0000 0000 0000 000000
2015-02-04 05:54:51,0.28,6.67,0.00,19.61,24.89,28.11,4.93,28.84,1021.50,2036.98,1637.33,1936.25,2082.74,349.78,353.06,28.31,0000 0000 0000 0000 000000
2015-02-04 05:59:53,0.26,6.67,0.00,19.57,24.90,28.19,4.91,28.89,1021.50,2036.96,1636.01,1935.26,2081.62,349.94,353.08,28.33,0000 0000 0000 0000 000000
2015-02-04 06:04:54,0.29,6.68,0.00,19.58,24.90,28.20,4.88,28.94,1021.50,2036.97,1634.68,1934.20,2080.62,350.09,353.53,28.36,0000 0000 0000 0000 000000
2015-02-04 06:09:55,0.26,6.69,0.00,19.59,24.92,28.20,4.96,29.08,1021.53,2036.93,1633.27,1933.14,2079.45,350.74,354.17,28.39,0000 0000 0000 0000 000000
2015-02-04 06:14:57,0.29,6.70,0.00,19.52,24.92,28.09,4.96,28.88,1021.71,2036.91,1631.75,1932.06,2078.34,350.09,353.64,28.42,0000 0000 0000 0000 000000
2015-02-04 06:19:58,0.24,6.71,0.00,19.60,24.95,28.16,4.95,29.04,1021.67,2036.74,1630.31,1930.97,2077.14,350.76,354.17,28.45,0000 0000 0000 0000 000000
2015-02-04 06:24:59,0.30,6.71,0.00,19.65,24.95,28.26,4.84,29.06,1021.92,2036.82,1628.89,1929.96,2076.02,349.88,353.14,28.48,0000 0000 0000 0000 000000
2015-02-04 06:30:00,0.26,6.72,0.00,19.62,24.96,28.22,4.85,28.98,1021.95,2036.76,1627.45,1928.90,2074.92,349.43,352.95,28.51,0000 0000 0000 0000 000000
2015-02-04 06:35:01,0.27,6.73,0.00,19.66,24.97,28.22,4.87,28.88,1021.97,2036.64,1625.97,1927.88,2073.80,349.67,353.05,28.54,0000 0000 0000 0000 000000
2015-02-04 06:40:02,0.31,6.74,0.00,19.59,24.97,28.13,4.85,29.18,1021.99,2036.67,1624.52,1926.79,2072.66,349.51,353.05,28.57,0000 0000 0000 0000 000000
2015-02-04 06:45:04,0.28,6.75,0.00,19.63,24.97,28.12,4.89,29.02,1021.99,2036.52,1623.05,1925.73,2071.58,350.28,354.14,28.60,0000 0000 0000 0000 000000
2015-02-04 06:50:05,0.19,6.75,0.00,19.66,24.99,28.15,4.87,28.99,1021.99,2036.36,1621.83,1924.80,2070.52,350.11,353.62,28.63,0000 0000 0000 0000 000000
2015-02-04 06:55:06,0.20,6.76,0.00,19.67,25.00,28.26,4.91,28.91,1022.00,2036.26,1620.84,1923.96,2069.59,349.63,353.07,28.66,0000 0000 0000 0000 000000
2015-02-04 07:00:08,0.19,6.77,0.00,19.68,25.00,28.29,4.91,28.88,1022.00,2036.12,1619.81,1923.09,2068.62,349.73,352.99,28.69,0000 0000 0000 0000 000000
2015-02-04 07:05:09,0.21,6.77,0.00,19.68,25.02,28.28,4.83,29.04,1021.99,2036.04,1618.89,1922.23,2067.71,349.67,352.84,28.72,0000 0000 0000 0000 000000
2015-02-04 07:10:10,0.19,6.78,0.00,19.64,25.02,28.07,4.82,29.04,1021.99,2036.01,1618.03,1921.50,2066.82,349.86,353.38,28.74,0000 0000 0000 0000 000000
2015-02-04 07:15:12,0.18,6.78,0.00,19.72,25.02,28.23,4.82,28.98,1021.99,2036.01,1617.18,1920.80,2065.96,349.44,352.98,28.77,0000 0000 0000 0000 000000
2015-02-04 07:20:13,0.19,6.79,0.00,19.75,25.04,28.26,4.88,28.88,1021.99,2036.00,1616.32,1920.03,2065.08,350.22,353.41,28.80,0000 0000 0000 0000 000000
2015-02-04 07:25:14,0.22,6.80,0.00,19.77,25.05,28.25,4.87,28.86,1022.16,2036.00,1615.46,1919.37,2064.30,349.58,353.02,28.83,0000 0000 0000 0000 000000
2015-02-04 07:30:16,0.21,6.80,0.00,19.74,25.05,28.32,4.85,28.93,1022.43,2036.00,1614.51,1918.63,2063.41,349.26,352.82,28.86,0000 0000 0000 0000 000000
2015-02-04 07:35:17,0.16,6.81,0.00,19.63,25.06,28.21,4.92,28.91,1022.48,2036.00,1613.64,1917.89,2062.65,349.90,353.66,28.89,0000 0000 0000 0000 000000
2015-02-04 07:40:18,0.21,6.81,0.00,19.67,25.07,28.20,4.88,28.93,1022.48,2036.00,1612.64,1917.07,2061.85,350.09,353.57,28.92,0000 0000 0000 0000 000000
2015-02-04 07:45:19,0.16,6.82,0.00,19.73,25.07,28.25,4.91,29.07,1022.48,2035.99,1611.94,1916.41,2061.04,349.49,353.22,28.95,0000 0000 0000 0000 000000
2015-02-04 07:50:21,0.16,6.82,0.00,19.77,25.07,28.34,4.85,29.04,1022.47,2035.99,1611.10,1915.86,2060.35,349.93,353.46,28.98,0000 0000 0000 0000 000000
2015-02-04 07:55:22,0.20,6.83,0.00,19.77,25.07,28.33,4.87,28.87,1022.47,2035.98,1610.27,1915.05,2059.69,349.90,353.50,29.01,0000 0000 0000 0000 000000
2015-02-04 08:00:23,0.18,6.83,0.00,19.73,25.09,28.34,4.94,28.75,1022.48,2035.99,1609.55,1914.42,2059.00,350.22,353.71,29.04,0000 0000 0000 0000 000000
2015-02-04 08:05:24,0.11,6.84,0.00,19.58,25.10,28.19,4.88,28.83,1022.48,2035.99,1608.85,1913.97,2058.16,349.68,353.41,29.07,0000 0000 0000 0000 000000
2015-02-04 08:10:25,0.20,6.84,0.00,19.73,25.10,28.28,4.87,28.74,1022.49,2035.98,1608.04,1913.16,2057.63,350.13,353.73,29.10,0000 0000 0000 0000 000000
2015-02-04 08:15:27,0.17,6.85,0.00,19.78,25.10,28.36,4.92,28.77,1022.50,2035.97,1607.22,1912.58,2056.95,349.62,353.09,29.13,0000 0000 0000 0000 000000
2015-02-04 08:20:28,0.16,6.85,0.00,19.79,25.10,28.33,4.94,28.99,1022.58,2035.95,1606.39,1912.01,2056.14,350.33,353.83,29.15,0000 0000 0000 0000 000000
2015-02-04 08:25:29,0.19,6.86,0.00,19.78,25.10,28.35,4.98,28.95,1022.82,2035.95,1605.68,1911.27,2055.53,350.31,353.92,29.18,0000 0000 0000 0000 000000
2015-02-04 08:30:30,0.10,6.86,0.00,19.65,25.12,28.16,4.91,28.78,1022.95,2035.95,1604.91,1910.76,2054.94,349.70,353.44,29.21,0000 0000 0000 0000 000000
2015-02-04 08:35:32,0.18,6.87,0.00,19.74,25.12,28.24,4.91,28.87,1022.94,2035.92,1604.08,1910.04,2054.11,349.75,353.56,29.24,0000 0000 0000 0000 000000
2015-02-04 08:40:33,0.21,6.87,0.00,19.76,25.12,28.34,4.85,29.03,1022.89,2035.90,1603.31,1909.41,2053.43,350.09,353.65,29.27,0000 0000 0000 0000 000000
2015-02-04 08:45:34,0.08,6.88,0.00,19.78,25.12,28.36,4.84,29.11,1022.59,2035.82,1602.62,1908.93,2052.90,349.75,353.03,29.30,0000 0000 0000 0000 000000
2015-02-04 08:50:35,0.17,6.88,0.00,19.70,25.12,28.30,4.99,29.25,1022.90,2035.81,1601.93,1908.11,2052.08,350.32,354.08,29.33,0000 0000 0000 0000 000000
2015-02-04 08:55:37,0.17,6.89,0.00,19.69,25.12,28.17,4.95,29.18,1022.96,2035.74,1601.09,1907.75,2051.47,350.20,354.04,29.36,0000 0000 0000 0000 000000
2015-02-04 09:00:38,0.13,6.89,0.00,19.74,25.12,28.19,4.94,29.23,1022.80,2035.67,1600.31,1907.02,2050.91,350.40,353.99,29.39,0000 0000 0000 0000 000000
2015-02-04 09:05:39,0.17,6.90,0.00,19.76,25.12,28.27,4.93,29.20,1022.90,2035.48,1599.69,1906.36,2050.07,350.23,354.01,29.42,0000 0000 0000 0000 000000
2015-02-04 09:10:41,0.12,6.90,0.00,19.76,25.12,28.33,4.91,28.94,1022.96,2035.55,1599.02,1905.97,2049.59,350.00,353.78,29.45,0000 0000 0000 0000 000000
2015-02-04 09:15:42,0.13,6.90,0.00,19.74,25.12,28.37,4.84,28.82,1022.96,2035.43,1598.36,1905.17,2049.00,349.79,353.58,29.48,0000 0000 0000 0000 000000
2015-02-04 09:20:43,0.12,6.91,0.00,19.74,25.12,28.26,4.91,29.02,1022.95,2035.44,1597.83,1904.85,2048.24,349.54,353.45,29.51,0000 0000 0000 0000 000000
2015-02-04 09:25:44,0.17,6.91,0.00,19.62,25.12,28.05,4.88,29.11,1022.95,2035.40,1597.05,1904.08,2047.66,349.97,353.67,29.54,0000 0000 0000 0000 000000
2015-02-04 09:30:45,0.10,6.92,0.00,19.67,25.12,28.21,4.92,29.09,1022.96,2035.16,1596.19,1903.69,2047.02,349.73,353.57,29.56,0000 0000 0000 0000 000000
2015-02-04 09:35:46,0.15,6.92,0.00,19.66,25.12,28.25,4.88,28.78,1022.97,2035.20,1595.60,1903.03,2046.78,350.38,354.28,29.59,0000 0000 0000 0000 000000
2015-02-04 09:40:48,0.13,6.92,0.00,19.66,25.12,28.26,4.95,29.09,1023.02,2035.09,1594.86,1902.37,2046.03,350.10,354.20,29.62,0000 0000 0000 0000 000000
2015-02-04 09:45:49,0.15,6.93,0.00,19.56,25.12,28.13,4.92,28.88,1023.01,2035.20,1594.09,1901.98,2045.58,349.79,353.54,29.65,0000 0000 0000 0000 000000
2015-02-04 09:50:50,0.18,6.93,0.00,19.54,25.12,28.07,4.92,28.79,1023.12,2035.14,1593.37,1901.25,2044.99,349.97,353.80,29.68,0000 0000 0000 0000 000000
2015-02-04 09:55:51,0.10,6.94,0.00,19.64,25.12,28.21,4.93,29.01,1023.05,2035.28,1592.88,1900.95,2044.27,349.57,353.51,29.71,0000 0000 0000 0000 000000
2015-02-04 10:00:53,0.22,6.94,0.00,19.65,25.12,28.24,4.89,28.71,1023.01,2035.38,1592.07,1900.17,2043.89,349.82,353.80,29.74,0000 0000 0000 0000 000000
2015-02-04 10:05:54,0.13,6.95,0.00,19.64,25.11,28.24,4.95,28.95,1022.99,2035.44,1591.49,1899.91,2043.09,350.35,354.15,29.77,0000 0000 0000 0000 000000
2015-02-04 10:10:55,0.21,6.95,0.00,19.49,25.10,28.03,4.94,28.76,1023.20,2035.49,1590.70,1899.12,2042.67,349.92,354.24,29.80,0000 0000 0000 0000 000000
2015-02-04 10:15:56,0.15,6.96,0.00,19.53,25.10,28.00,4.88,28.88,1023.39,2035.77,1589.92,1898.79,2042.02,350.07,354.15,29.83,0000 0000 0000 0000 000000
2015-02-04 10:20:57,0.19,6.96,0.00,19.63,25.10,28.09,4.88,28.90,1023.22,2035.65,1589.07,1898.04,2041.47,349.64,353.58,29.86,0000 0000 0000 0000 000000
2015-02-04 10:25:58,0.14,6.97,0.00,19.61,25.10,28.21,4.94,28.92,1023.38,2035.67,1588.61,1897.62,2040.95,350.12,354.11,29.89,0000 0000 0000 0000 000000
2015-02-04 10:31:00,0.11,6.97,0.00,19.63,25.10,28.21,4.89,28.98,1023.44,2035.67,1587.99,1897.01,2040.15,349.93,353.99,29.92,0000 0000 0000 0000 000000
2015-02-04 10:36:01,0.19,6.98,0.00,19.53,25.10,27.98,4.89,28.93,1023.45,2035.63,1587.20,1896.42,2039.77,350.07,354.20,29.95,0000 0000 0000 0000 000000
2015-02-04 10:41:02,0.04,6.98,0.00,19.56,25.10,28.01,4.86,29.13,1023.45,2035.38,1586.62,1895.99,2039.02,349.61,353.75,29.97,0000 0000 0000 0000 000000
2015-02-04 10:46:03,0.20,6.98,0.00,19.58,25.10,28.10,4.84,28.90,1023.45,2035.49,1586.02,1895.38,2038.35,349.60,353.55,30.00,0000 0000 0000 0000 000000
2015-02-04 10:51:04,0.09,6.99,0.00,19.60,25.09,28.17,4.92,29.11,1023.45,2035.38,1585.29,1894.92,2037.84,349.67,353.63,30.03,0000 0000 0000 0000 000000
2015-02-04 10:56:06,0.19,6.99,0.00,19.62,25.08,28.24,4.91,29.02,1023.45,2035.33,1584.75,1894.13,2037.06,349.92,353.85,30.06,0000 0000 0000 0000 000000
2015-02-04 11:01:07,0.17,7.00,0.00,19.57,25.07,28.10,4.89,29.07,1023.45,2035.63,1584.03,1893.90,2036.66,350.07,354.12,30.09,0000 0000 0000 0000 000000
2015-02-04 11:06:08,0.16,7.00,0.00,19.58,25.07,28.13,4.88,29.07,1023.45,2035.57,1583.30,1893.11,2036.02,349.62,353.79,30.12,0000 0000 0000 0000 000000
2015-02-04 11:11:10,0.15,7.01,0.00,19.61,25.07,28.20,4.90,29.07,1023.46,2035.72,1582.76,1892.84,2035.37,349.61,353.79,30.15,0000 0000 0000 0000 000000
2015-02-04 11:16:11,0.11,7.01,0.00,19.61,25.07,28.23,4.92,29.11,1023.48,2035.58,1582.01,1892.05,2034.86,350.36,354.50,30.18,0000 0000 0000 0000 000000
2015-02-04 11:21:12,0.23,7.02,0.00,19.52,25.07,28.15,4.86,28.94,1023.56,2035.76,1581.31,1891.68,2034.10,349.37,353.50,30.21,0000 0000 0000 0000 000000
2015-02-04 11:26:14,0.13,7.02,0.00,19.39,25.06,28.01,4.83,28.99,1023.52,2035.63,1580.60,1891.02,2033.57,349.85,354.22,30.24,0000 0000 0000 0000 000000
2015-02-04 11:31:15,0.14,7.03,0.00,19.50,25.05,28.03,4.91,28.87,1023.72,2035.73,1579.97,1890.52,2033.00,349.72,354.17,30.27,0000 0000 0000 0000 000000
2015-02-04 11:36:16,0.20,7.03,0.00,19.52,25.05,28.18,4.96,29.00,1023.63,2035.84,1579.15,1890.00,2032.29,350.69,354.89,30.30,0000 0000 0000 0000 000000
2015-02-04 11:41:17,0.16,7.03,0.00,19.48,25.05,28.15,4.85,29.18,1023.67,2035.87,1578.53,1889.34,2031.92,349.33,353.72,30.33,0000 0000 0000 0000 000000
2015-02-04 11:46:19,0.11,7.04,0.00,19.38,25.04,27.88,4.95,28.88,1023.91,2035.91,1577.94,1888.96,2031.10,350.12,354.80,30.36,0000 0000 0000 0000 000000
2015-02-04 11:51:20,0.21,7.05,0.00,19.45,25.03,27.99,4.86,29.13,1023.91,2035.92,1577.12,1888.21,2030.64,349.43,353.61,30.38,0000 0000 0000 0000 000000
2015-02-04 11:56:21,0.12,7.05,0.00,19.50,25.02,28.01,4.88,29.07,1023.91,2035.86,1576.39,1887.92,2030.01,349.44,353.66,30.41,0000 0000 0000 0000 000000
2015-02-04 12:01:22,0.17,7.06,0.00,19.44,25.02,28.03,4.95,29.27,1023.85,2035.93,1575.87,1887.12,2029.31,350.51,355.09,30.44,0000 0000 0000 0000 000000
2015-02-04 12:06:24,0.15,7.06,0.00,19.42,25.01,27.98,4.94,29.22,1023.88,2035.94,1575.06,1886.67,2028.83,349.60,354.08,30.47,0000 0000 0000 0000 000000
2015-02-04 12:11:25,0.17,7.07,0.00,19.40,25.00,27.92,4.92,28.83,1023.89,2035.93,1574.26,1886.01,2028.05,349.80,354.33,30.50,0000 0000 0000 0000 000000
2015-02-04 12:16:27,0.14,7.07,0.00,19.42,25.00,28.03,4.85,29.14,1023.92,2035.95,1573.78,1885.53,2027.68,349.31,353.78,30.53,0000 0000 0000 0000 000000
2015-02-04 12:21:28,0.11,7.07,0.00,19.41,24.98,28.07,4.95,28.98,1023.94,2035.97,1573.04,1885.00,2027.02,349.59,354.14,30.56,0000 0000 0000 0000 000000
2015-02-04 12:26:29,0.21,7.08,0.00,19.37,24.97,27.91,5.00,29.11,1023.94,2035.98,1572.32,1884.52,2026.47,349.89,354.64,30.59,0000 0000 0000 0000 000000
2015-02-04 12:31:31,0.08,7.08,0.00,19.31,24.97,27.86,4.90,29.11,1023.94,2035.99,1571.75,1884.00,2025.97,349.96,354.71,30.62,0000 0000 0000 0000 000000
2015-02-04 12:36:32,0.18,7.09,0.00,19.36,24.96,27.90,4.91,29.01,1023.94,2035.99,1571.02,1883.46,2025.22,349.63,354.23,30.65,0000 0000 0000 0000 000000
2015-02-04 12:41:34,0.12,7.09,0.00,19.36,24.95,27.91,4.98,29.14,1023.94,2035.99,1570.20,1883.00,2024.87,350.17,354.90,30.68,0000 0000 0000 0000 000000
2015-02-04 12:46:35,0.19,7.10,0.00,19.34,24.95,27.92,4.93,28.97,1023.94,2035.99,1569.72,1882.33,2024.08,350.16,354.73,30.71,0000 0000 0000 0000 000000
2015-02-04 12:51:37,0.08,7.10,0.00,19.31,24.93,27.83,4.93,28.95,1024.03,2035.99,1569.02,1881.97,2023.75,350.14,354.67,30.74,0000 0000 0000 0000 000000
2015-02-04 12:56:38,0.20,7.10,0.00,19.34,24.92,27.87,4.96,29.02,1024.22,2035.99,1568.33,1881.29,2023.04,350.09,354.93,30.77,0000 0000 0000 0000 000000
2015-02-04 13:01:39,0.12,7.11,0.00,19.32,24.91,27.97,4.91,29.00,1024.24,2035.99,1567.69,1880.96,2022.51,350.08,354.63,30.80,0000 0000 0000 0000 000000